www.pogodaiklimat.ru

Погода и климат >> Архив погоды >> Индонезия >> Сарми


ПОГОДА в Сарми

  • Прогноз погоды в Сарми
  • Монитор погоды в Сарми

АРХИВ ПОГОДЫ в Сарми

Время (UTC), дата Ветер
(напр.,м/с)
 
Видим.   Явления Облачность Т
(С)
Тd
(С)
f
(%)
Тe
(С)
Тes
(С)
Комфортность P
(гПа)
Po
(гПа)
Тmin
(С)
Tmax
(С)
R
(мм)
R24
(мм)
S
(см)
00 12.06 штиль 0 10 км {гроза, дождь} 10/3 420 м
[Cb cap As trans Cs]
+26.1 +25.3 95 +38 +42 очень
душно
1012.6 1012.0 +24.6 0.4
03 12.06 штиль 0 10 км 9/4 450 м
[Cu Sc As trans Cs]
+27.9 +25.7 88 +41 +50 опасность
перегрева
1011.3 1010.8
06 12.06 штиль 0 8000 м 9/5 450 м
[Cu Sc As trans Cs]
+28.6 +24.8 80 +41 +44 опасность
перегрева
1008.8 1008.2
09 12.06 штиль 0 10 км 9/5 450 м
[Cu Sc As trans Cs]
+28.0 +24.6 82 +40 +40 очень
душно
1010.2 1009.6
12 12.06 штиль 0 8000 м 6/5 450 м
[Cu Sc Ac trans Ci fib]
+26.6 +24.6 89 +38 +38 очень
душно
1010.7 1010.2 +28.9
15 12.06 штиль 0 8000 м 6/5 450 м
[Cu Sc Ac trans Ci fib]
+25.3 +24.1 93 +35 +35 очень
душно
1009.7
00 13.06 штиль 0 11 км 8/4 450 м
[Cu Sc As trans Cs]
+27.9 +25.3 86 +41 +46 опасность
перегрева
1011.9 1011.4 +23.9 0.2
03 13.06 СВ 2 11 км 8/4 450 м
[Cu Sc As trans Cs]
+29.9 +24.8 74 +43 +50 опасность
перегрева
1010.2 1009.6
06 13.06 СВ 2 12 км 9/5 450 м
[Cu Sc Ac trans Ci]
+30.4 +25.5 75 +45 +47 опасность
перегрева
1008.5 1007.9
09 13.06 штиль 0 12 км 9/5 450 м
[Cu Sc Ac trans Ci]
+28.8 +24.6 78 +41 +41 опасность
перегрева
1009.1 1008.6
12 13.06 штиль 0 8000 м 6/5 450 м
[Cu Sc Ac trans Ci]
+28.0 +24.8 83 +40 +40 очень
душно
1010.5 1010.0 +31.1
15 13.06 штиль 0 8000 м 6/5 450 м
[Cu Sc Ac trans Ci]
+26.7 +24.5 88 +38 +38 очень
душно
1009.8 1009.3
00 14.06 ЮВ 2 12 км 6/3 450 м
[Cu Sc Ac trans Ci]
+29.3 +24.8 77 +42 +47 опасность
перегрева
1010.8 1010.2 +24.8
03 14.06 СВ 2 12 км 4/1 450 м
[Cu Sc Ac trans Ci]
+30.8 +25.6 74 +45 +59 опасность
перегрева
1008.9 1008.4
06 14.06 СВ 2 12 км 4/1 450 м
[Cu Sc Ac trans Ci fib]
+30.8 +25.4 73 +45 +51 опасность
перегрева
1006.6 1006.0
09 14.06 штиль 0 10 км 4/3 450 м
[Cu Sc Ac trans Ci fib]
+29.3 +25.1 78 +42 +42 опасность
перегрева
1007.8 1007.2
12 14.06 штиль 0 8000 м 6/4 450 м
[Cu Sc Ac trans Ci fib]
+28.7 +25.5 83 +42 +42 опасность
перегрева
1009.8 1009.2 +31.3
15 14.06 штиль 0 8000 м 6/5 450 м
[Cu Sc Ac trans Ci fib]
+27.0 +24.5 86 +38 +38 очень
душно
1010.3 1009.7
00 15.06 ЮВ 2 11 км {дождь} 6/3 450 м
[Cu Sc Ac trans Ci]
+29.4 +24.9 77 +42 +48 опасность
перегрева
1010.7 1010.2 +24.6 0.2
03 15.06 В 2 12 км 5/4 450 м
[Cu Sc Ac trans Ci]
+31.1 +25.0 70 +45 +55 опасность
перегрева
1009.3 1008.8
06 15.06 штиль 0 10 км 6/3 450 м
[Cu med, cong Ac trans Ci]
+30.6 +25.0 72 +44 +50 опасность
перегрева
1007.3 1006.8
09 15.06 штиль 0 9000 м 8/5 420 м
[Cb cap Ac trans Cs]
+29.3 +24.9 77 +42 +42 опасность
перегрева
1008.6 1008.0
12 15.06 штиль 0 8000 м 9/6 420 м
[Cb cap Ac trans Cs]
+27.8 +25.2 86 +40 +40 очень
душно
1010.6 1010.1 +31.7
15 15.06 штиль 0 8000 м 9/6 420 м
[Cb cap Ac trans Cs]
+26.3 +24.5 90 +37 +37 очень
душно
1010.5 1010.0
00 16.06 штиль 0 11 км 8/3 450 м
[Cu Sc Ac trans Ci]
+27.3 +24.8 86 +39 +45 очень
душно
1010.5 1009.9 +24.6
03 16.06 С 3 12 км гроза без осадков 9/3 420 м
[Cb cap Ac trans Ci]
+30.6 +25.2 73 +44 +50 опасность
перегрева
1009.6 1009.0
06 16.06 СЗ 3 12 км 9/1 420 м
[Cb cap Ac trans Ci]
+29.8 +25.1 76 +43 +46 опасность
перегрева
1007.7 1007.1
09 16.06 штиль 0 10 км 9/3 420 м
[Cb cap Ac trans Ci]
+29.1 +25.1 79 +42 +42 опасность
перегрева
1009.4 1008.9
12 16.06 штиль 0 8000 м в посл. час дождь 9/3 420 м
[Cb cap As op Ci sp]
+26.6 +24.5 88 +37 +37 очень
душно
1011.3 1010.7 +31.4 8
15 16.06 штиль 0 8000 м слаб. дождь 9/3 420 м
[Cb cap As op Ci fib]
+25.8 +24.2 91 +36 +36 очень
душно
1010.8 1010.2 0.2
00 17.06 штиль 0 11 км {дождь} 9/5 450 м
[Cu Sc Ac trans Ci]
+27.0 +25.4 91 +39 +44 очень
душно
1011.2 1010.6 +24.8 0.2
03 17.06 С 3 11 км 9/5 450 м
[Cu Sc Ac trans Ci]
+29.0 +25.2 80 +42 +47 опасность
перегрева
1009.9 1009.4
06 17.06 штиль 0 10 км {дождь} 10/5 450 м
[Cb cap Ac As Cs]
+27.8 +26.6 93 +43 +45 опасность
перегрева
1008.3 1007.8 0.0
09 17.06 штиль 0 12 км 8/6 420 м
[Cb cap As trans Cs]
+28.0 +25.4 86 +41 +41 опасность
перегрева
1009.8 1009.2
12 17.06 штиль 0 8000 м 6/6 420 м
[Cb cap As trans Cs]
+26.5 +24.9 91 +38 +38 очень
душно
1011.3 1010.8 +29.5
15 17.06 штиль 0 8000 м 6/6 420 м
[Cb cap As trans Cs]
+25.5 +24.3 93 +35 +35 очень
душно
1010.6 1010.1
00 18.06 ЮЗ 2 12 км {дождь} 6/1 450 м
[Cu Sc Ac trans Ci]
+27.8 +25.0 85 +40 +47 очень
душно
1010.6 1010.1 +23.9 0.2
03 18.06 СЗ 3 12 км 8/5 450 м
[Cu Sc Ac trans Ci fib]
+30.4 +25.7 76 +45 +51 опасность
перегрева
1008.4 1007.9
06 18.06 СЗ 4 12 км 6/1 450 м
[Cu Sc Ac trans Ci]
+31.0 +25.8 74 +46 +49 опасность
перегрева
1006.5 1006.0
09 18.06 З 3 10 км 8/5 420 м
[Cb cap Ac trans Ci sp]
+28.8 +24.4 77 +40 +40 очень
душно
1007.9 1007.3
12 18.06 штиль 0 8000 м слаб. дождь 9/5 420 м
[Cb cap As trans Ci sp]
+27.0 +25.0 89 +39 +39 очень
душно
1010.2 1009.6 +31.5 2
15 18.06 штиль 0 8000 м в посл. час дождь 9/5 420 м
[Cb cap As trans Ci sp]
+25.1 +23.7 92 +34 +34 очень
душно
1009.1 1008.7 2

 

Местоположение метеостанции Сарми (Индонезия): широта -1.83 долгота 138.71 высота над уровнем моря 3 м.

В архиве по умолчанию представлена погода в Сарми за последнюю неделю. Архивные данные за месяц целиком и за предыдущие месяцы, начиная с января 2011 года, Вы можете получить, выбрав интересующий диапазон дат из раскрывающегося списка и нажав кнопку "Ввод!".


*Определитесь, кто Вы:
робот инопланетянин человек

Внимание! Время в таблицах - всемирное. Для получения местного времени необходимо прибавить поправку, которая равна 9 ч.

Смотрите также архив погоды в соседних городах и на ближайших метеорологических станциях:

Погода в Сентани (Индонезия) (218 км)
Погода в Джаяпуре (Индонезия) (238 км)
Погода в Вамене (Индонезия) (251 км)
Погода в Серуи (Индонезия) (276 км)
Погода в Биаке (Индонезия) (298 км)
Погода в Энаротали (Индонезия) (349 км)
Погода в Коконао (Индонезия) (379 км)
Погода в Набире (Индонезия) (394 км)
Погода в Танах Мерах (Индонезия) (507 км)
Погода в Маноквари (Индонезия) (529 км)

Пояснения к столбцам:

Ветер - указаны скорость ветра в м/с - средняя за 10 мин, порывы в срок и между сроками (в фигурных скобках) и направление, откуда дует ветер: С - северный, СВ - северо-восточный, В - восточный, ЮВ - юго-восточный, Ю - южный, ЮЗ - юго-западный, З - западный, СЗ - северо-западный.
Видимость - горизонтальная дальность видимости в метрах или километрах. При видимости от 1 до 10 км при отсутствии осадков обычно наблюдается дымка, при ухудшении видимости до 1 км и менее - туман. В сухую погоду видимость может ухудшаться дымом, пылью или мглою.
Явления - указаны атмосферные явления, наблюдавшиеся в срок или в последний час перед сроком; фигурными скобками обозначены явления, наблюдавшиеся между сроками (за 1-3 часа до срока); квадратными скобками обозначены град или гололедные отложения с указанием их диаметра в мм.
Облачность - указаны через наклонную черту общая и нижняя облачность в баллах и высота нижней границы облаков в метрах; квадратными скобками обозначены формы облаков: Ci - перистые, Cs - перисто-слоистые, Cc - перисто-кучевые, Ac - высококучевые, As - высокослоистые, Sc - слоисто-кучевые, Ns - слоисто-дождевые, Cu - кучевые, Cb - кучево-дождевые. Подробнее классификацию облаков см. в Атласе облаков (PDF).
T - Температура воздуха - температура, измеренная на высоте 2 м над землей.
Td - Температура точки росы - температура, при понижении до которой содержащийся в воздухе водяной пар достигнет насыщения.
f - Относительная влажность воздуха - влажноcть воздуха, измеренная на высоте 2 м над землей.
Te - Эффективная температура - температура, которую ощущает одетый по сезону человек в тени. Характеристика душности погоды. При расчете учитывается влияние влажности воздуха и скорости ветра на теплоощущения человека.
Tes - Эффективная температура на солнце - температура, которую ощущает человек, с поправкой на солнечный нагрев. Характеристика знойности погоды. Зависит от высоты солнца над горизонтом, облачности и скорости ветра. Ночью, в пасмурную погоду, а также при ветре 12 м/с и более поправка равна нулю.
P - Атмосферное давление - приведенное к уровню моря атмосферное давление.
Po - Атмосферное давление - измеренное на уровне метеостанции атмосферное давление.
Tmin - Минимальная температура - минимум температуры воздуха на высоте 2 м над землей.
Tmax - Максимальная температура - максимум температуры воздуха на высоте 2 м над землей.
R - Количество осадков - Количество выпавших осадков за период времени, мм. При наведении курсора мыши на число - период времени, за который выпало указанное количество осадков.
R24 - Количество осадков - Количество выпавших осадков за 24 часа, мм.
S - Снежный покров - Высота снежного покрова, см. При наведении курсора мыши на число - состояние снежного покрова и степень покрытия местности в баллах.